COSMOS 2614

导读

COSMOS 2614(NORAD编号68764)是俄罗斯/苏联“宇宙”(Cosmos)系列卫星中的一颗卫星。该系列卫星从1962年开始发射,涵盖军事侦察、技术试验等多种用途,多数编号仅用于区分任务,真实用途对外保密。 作为低轨道人造卫星,它延续了苏联/俄罗斯对军事卫星的传统命名方式,截至2025年,整个宇宙系列已经发射超过2500颗卫星,多数已退役成为空间碎片。目前公开资料中暂未披露该卫星具体任务细节,其编号对应NORAD 68764用于空间轨道监测。

基本信息
目录编号:
68764
目录名称:
COSMOS 2614
国际标识:
2026-083K
轨道中心:
EARTH
卫星名称:
COSMOS 2614
卫星全名:
COSMOS 2614
卫星状态:
在轨 (已飞行59 天)
发射日期:
2026-04-16 UTC
国别 :
俄罗斯(独联体) (CIS)
星等 :
--
轨道信息
数据来源 国际轨道数据
星历时间: 2026-06-15T01:43:45+0800
4小时前
查看轨道信息
半长轴: 6927.282km
偏心率: 0.000695
轨道倾角: 97.777°
近地点辐角 35.864°
升交点赤经 302.932°
平近点角 324.305°
近地点: 544.33km
远地点: 553.96km
周期: 95.632分钟
每日圈数: 15.057694
详细信息
使用方式:
暂无
2D轨道图
3D轨道图
轨道高度分析图
轨道倾角分析图
轨道综合分析图
查看轨道综合分析图